SYN001 EDDH-EDLW

Flight info

Callsign SYN001
Flight time 0h 54m
Altitude 24000
Route HABFU1G/33 HABFU Y348 MAWEQ Z718 OSNAD M170 HMM N853 DOMEG DOMEG2A
Aircraft BCS3/M-SBDE2E3GIRWXY/LB1

Departure

Time 2026-04-30 18:45
Airport Hamburg Helmut Schmidt Airport (EDDH)

Arrival

Time 2026-04-30 19:39
Airport Dortmund Airport (EDLW)
Time Latitude Longitude Altitude Speed Heading
2026-04-30 17:41 53.62797 9.99358 48 ft 0 kts 242°
2026-04-30 18:17 53.62802 9.99371 48 ft 3 kts 242°
2026-04-30 18:18 53.62810 9.99400 44 ft 3 kts 242°
2026-04-30 18:18 53.62819 9.99428 44 ft 3 kts 242°
2026-04-30 18:18 53.62825 9.99447 44 ft 0 kts 242°
2026-04-30 18:22 53.62825 9.99446 44 ft 1 kts 242°
2026-04-30 18:22 53.62819 9.99437 47 ft 0 kts 208°
2026-04-30 18:22 53.62801 9.99456 46 ft 10 kts 146°
2026-04-30 18:23 53.62745 9.99523 47 ft 10 kts 144°
2026-04-30 18:23 53.62685 9.99591 46 ft 11 kts 151°
2026-04-30 18:23 53.62635 9.99689 46 ft 12 kts 98°
2026-04-30 18:23 53.62636 9.99744 46 ft 0 kts 79°
2026-04-30 18:41 53.62637 9.99745 46 ft 1 kts 79°
2026-04-30 18:41 53.62665 9.99827 46 ft 15 kts 43°
2026-04-30 18:41 53.62763 9.99834 46 ft 15 kts 334°
2026-04-30 18:42 53.62860 9.99747 48 ft 16 kts 334°
2026-04-30 18:42 53.62894 9.99719 49 ft 0 kts 334°
2026-04-30 18:45 53.67754 9.95500 3386 ft 169 kts 334°
2026-04-30 18:45 53.68841 9.94586 4229 ft 179 kts 336°
2026-04-30 18:45 53.70034 9.93627 4964 ft 199 kts 337°
2026-04-30 18:46 53.71306 9.92223 5280 ft 246 kts 316°
2026-04-30 18:46 53.72239 9.89544 5138 ft 278 kts 287°
2026-04-30 18:46 53.72357 9.86361 5049 ft 278 kts 259°
2026-04-30 18:46 53.71602 9.83377 5022 ft 278 kts 234°
2026-04-30 18:47 53.70512 9.80673 5006 ft 279 kts 237°
2026-04-30 18:47 53.69573 9.77802 4999 ft 279 kts 243°
2026-04-30 18:47 53.68781 9.74806 4966 ft 281 kts 246°
2026-04-30 18:47 53.68087 9.71712 4940 ft 280 kts 249°
2026-04-30 18:48 53.67430 9.68623 4971 ft 280 kts 250°
2026-04-30 18:48 53.66794 9.65505 4999 ft 281 kts 250°
2026-04-30 18:48 53.66167 9.62388 4996 ft 280 kts 250°
2026-04-30 18:48 53.65417 9.59366 4994 ft 279 kts 234°
2026-04-30 18:49 53.64068 9.57139 5007 ft 275 kts 212°
2026-04-30 18:49 53.62447 9.55448 5005 ft 274 kts 207°
2026-04-30 18:49 53.60786 9.53878 4998 ft 274 kts 206°
2026-04-30 18:49 53.59114 9.52336 5000 ft 273 kts 206°
2026-04-30 18:50 53.57424 9.50783 5155 ft 284 kts 206°
2026-04-30 18:50 53.55713 9.49211 6294 ft 278 kts 205°
2026-04-30 18:50 53.53986 9.47629 7170 ft 283 kts 205°
2026-04-30 18:50 53.52238 9.46031 8054 ft 288 kts 205°
2026-04-30 18:51 53.50464 9.44413 8956 ft 292 kts 205°
2026-04-30 18:51 53.48681 9.42789 9768 ft 301 kts 205°
2026-04-30 18:51 53.46813 9.41090 10015 ft 306 kts 205°
2026-04-30 18:51 53.44953 9.39395 10024 ft 300 kts 205°
2026-04-30 18:52 53.43120 9.37726 10009 ft 300 kts 205°
2026-04-30 18:52 53.41282 9.36056 9993 ft 300 kts 205°
2026-04-30 18:52 53.39442 9.34387 10015 ft 306 kts 205°
2026-04-30 18:52 53.37543 9.32669 10601 ft 318 kts 205°
2026-04-30 18:53 53.35542 9.30861 11040 ft 333 kts 205°
2026-04-30 18:53 53.33498 9.29016 11772 ft 335 kts 204°
2026-04-30 18:53 53.31308 9.27756 12514 ft 333 kts 189°
2026-04-30 18:53 53.29018 9.26979 13236 ft 337 kts 187°
2026-04-30 18:54 53.26706 9.26281 13964 ft 340 kts 186°
2026-04-30 18:54 53.24357 9.25582 14626 ft 344 kts 186°
2026-04-30 18:54 53.21986 9.24878 15252 ft 349 kts 186°
2026-04-30 18:54 53.19581 9.24164 15891 ft 353 kts 186°
2026-04-30 18:55 53.17177 9.23451 16516 ft 356 kts 186°
2026-04-30 18:55 53.12234 9.21987 17771 ft 365 kts 187°
2026-04-30 18:55 53.09716 9.21242 18394 ft 369 kts 187°
2026-04-30 18:56 53.04611 9.19734 19525 ft 376 kts 187°
2026-04-30 18:56 53.02019 9.18969 20071 ft 380 kts 187°
2026-04-30 18:56 52.99375 9.18191 20378 ft 390 kts 187°
2026-04-30 18:57 52.94172 9.15954 20420 ft 384 kts 202°
2026-04-30 18:57 52.91756 9.13964 20416 ft 390 kts 205°
2026-04-30 18:57 52.89379 9.11897 20408 ft 389 kts 206°
2026-04-30 18:58 52.84597 9.07709 20456 ft 392 kts 206°
2026-04-30 18:58 52.82195 9.05608 21133 ft 391 kts 206°
2026-04-30 18:58 52.79773 9.03493 21678 ft 394 kts 206°
2026-04-30 18:59 52.74874 8.99221 22673 ft 401 kts 206°
2026-04-30 19:00 52.67422 8.92740 24117 ft 409 kts 206°
2026-04-30 19:00 52.64881 8.90537 24373 ft 416 kts 206°
2026-04-30 19:00 52.59761 8.86102 24409 ft 408 kts 206°
2026-04-30 19:01 52.54693 8.81724 24406 ft 414 kts 206°
2026-04-30 19:01 52.52155 8.79535 24409 ft 410 kts 206°
2026-04-30 19:02 52.47105 8.75191 24399 ft 411 kts 206°
2026-04-30 19:02 52.41964 8.70780 23201 ft 417 kts 206°
2026-04-30 19:03 52.36912 8.66453 22178 ft 403 kts 205°
2026-04-30 19:03 52.32030 8.62283 21140 ft 393 kts 205°
2026-04-30 19:04 52.27653 8.57126 19996 ft 392 kts 232°
2026-04-30 19:04 52.25193 8.49254 18998 ft 390 kts 246°
2026-04-30 19:05 52.23149 8.41159 17947 ft 381 kts 247°
2026-04-30 19:05 52.21160 8.33171 16947 ft 378 kts 246°
2026-04-30 19:06 52.18458 8.26089 16269 ft 368 kts 225°
2026-04-30 19:06 52.16693 8.22977 15637 ft 374 kts 224°
2026-04-30 19:06 52.13181 8.16995 14981 ft 361 kts 223°
2026-04-30 19:07 52.09709 8.11115 14265 ft 357 kts 223°
2026-04-30 19:07 52.08010 8.08243 13892 ft 355 kts 223°
2026-04-30 19:08 52.04604 8.02500 13207 ft 351 kts 223°
2026-04-30 19:08 52.01229 7.96822 12521 ft 346 kts 223°
2026-04-30 19:08 51.99564 7.94026 12179 ft 342 kts 223°
2026-04-30 19:09 51.96889 7.89534 11635 ft 325 kts 223°
2026-04-30 19:09 51.95337 7.86933 11319 ft 316 kts 222°
2026-04-30 19:09 51.93343 7.83596 10916 ft 306 kts 222°
2026-04-30 19:10 51.90391 7.78671 10317 ft 302 kts 222°
2026-04-30 19:10 51.87960 7.74620 9807 ft 299 kts 222°
2026-04-30 19:11 51.86512 7.72212 9512 ft 297 kts 222°
2026-04-30 19:11 51.83108 7.68710 8932 ft 288 kts 203°
2026-04-30 19:11 51.81330 7.67236 8651 ft 286 kts 203°
2026-04-30 19:12 51.79564 7.65784 8367 ft 284 kts 203°
2026-04-30 19:12 51.77805 7.64338 8087 ft 282 kts 202°
2026-04-30 19:12 51.76058 7.62903 7808 ft 281 kts 202°
2026-04-30 19:13 51.72578 7.60052 7846 ft 286 kts 202°
2026-04-30 19:13 51.68860 7.59363 7856 ft 272 kts 170°
2026-04-30 19:13 51.66992 7.59721 7837 ft 268 kts 169°
2026-04-30 19:14 51.65163 7.60129 7384 ft 267 kts 168°
2026-04-30 19:14 51.63338 7.60555 6973 ft 263 kts 168°
2026-04-30 19:14 51.61524 7.60983 6479 ft 262 kts 168°
2026-04-30 19:14 51.59749 7.61401 6007 ft 259 kts 168°
2026-04-30 19:15 51.57923 7.61835 4745 ft 272 kts 168°
2026-04-30 19:15 51.54270 7.62647 2510 ft 262 kts 169°
2026-04-30 19:15 51.52605 7.62692 2655 ft 233 kts 188°
2026-04-30 19:16 51.51113 7.61426 3052 ft 253 kts 212°
2026-04-30 19:16 51.49808 7.59722 3197 ft 234 kts 214°
2026-04-30 19:16 51.47361 7.56481 3022 ft 219 kts 213°
2026-04-30 19:17 51.46206 7.54963 2994 ft 210 kts 213°
2026-04-30 19:17 51.43938 7.52013 2998 ft 214 kts 212°
2026-04-30 19:17 51.42775 7.50505 3011 ft 214 kts 212°
2026-04-30 19:18 51.40885 7.48115 3004 ft 197 kts 203°
2026-04-30 19:18 51.39424 7.46270 2999 ft 210 kts 230°
2026-04-30 19:18 51.38980 7.44006 3007 ft 220 kts 267°
2026-04-30 19:19 51.39400 7.41673 3007 ft 222 kts 303°
2026-04-30 19:19 51.40490 7.39966 3009 ft 220 kts 331°
2026-04-30 19:19 51.43223 7.40076 3013 ft 196 kts 40°
2026-04-30 19:20 51.44246 7.41423 2996 ft 184 kts 52°
2026-04-30 19:20 51.45046 7.42875 2983 ft 169 kts 59°
2026-04-30 19:20 51.46416 7.45907 2977 ft 165 kts 61°
2026-04-30 19:21 51.47101 7.47417 2653 ft 168 kts 62°
2026-04-30 19:21 51.48149 7.50662 2030 ft 160 kts 74°
2026-04-30 19:22 51.49226 7.53779 1468 ft 156 kts 65°
2026-04-30 19:22 51.50637 7.57795 868 ft 130 kts 64°
2026-04-30 19:23 51.52021 7.61755 1353 ft 143 kts 63°
2026-04-30 19:24 51.53028 7.64472 2783 ft 140 kts 67°
2026-04-30 19:24 51.53509 7.65799 2975 ft 138 kts 67°
2026-04-30 19:24 51.54437 7.68372 3015 ft 132 kts 68°
2026-04-30 19:25 51.56696 7.71593 3038 ft 209 kts
2026-04-30 19:26 51.59051 7.69030 3011 ft 222 kts 290°
2026-04-30 19:26 51.58501 7.64621 3002 ft 202 kts 215°
2026-04-30 19:26 51.57274 7.63718 3018 ft 189 kts 182°
2026-04-30 19:27 51.54685 7.63332 2994 ft 189 kts 181°
2026-04-30 19:27 51.52082 7.62873 3004 ft 187 kts 179°
2026-04-30 19:28 51.50777 7.62656 3001 ft 189 kts 179°
2026-04-30 19:28 51.48176 7.62231 2992 ft 189 kts 179°
2026-04-30 19:29 51.45575 7.61825 3001 ft 188 kts 179°
2026-04-30 19:29 51.44267 7.61582 2985 ft 191 kts 186°
2026-04-30 19:30 51.42907 7.55836 3017 ft 223 kts 298°
2026-04-30 19:30 51.45259 7.52893 3001 ft 218 kts 331°
2026-04-30 19:31 51.46494 7.48720 3013 ft 218 kts 258°
2026-04-30 19:31 51.45963 7.46507 3024 ft 210 kts 236°
2026-04-30 19:31 51.44570 7.42381 2993 ft 211 kts 235°
2026-04-30 19:32 51.43903 7.40284 2999 ft 213 kts 243°
2026-04-30 19:32 51.43471 7.37999 3010 ft 217 kts 253°
2026-04-30 19:32 51.43161 7.35632 2998 ft 215 kts 253°
2026-04-30 19:32 51.43031 7.33219 2998 ft 218 kts 260°
2026-04-30 19:33 51.42480 7.31047 3005 ft 205 kts 223°
2026-04-30 19:33 51.41345 7.29893 3022 ft 189 kts 186°
2026-04-30 19:33 51.40109 7.30105 3017 ft 179 kts 149°
2026-04-30 19:33 51.39291 7.31509 3016 ft 175 kts 112°
2026-04-30 19:34 51.39272 7.33445 3009 ft 183 kts 75°
2026-04-30 19:34 51.40032 7.35133 3010 ft 192 kts 48°
2026-04-30 19:34 51.42154 7.37791 2994 ft 193 kts 44°
2026-04-30 19:35 51.43189 7.39049 2991 ft 179 kts 44°
2026-04-30 19:35 51.44137 7.40245 3007 ft 171 kts 49°
2026-04-30 19:35 51.44946 7.41622 2996 ft 167 kts 57°
2026-04-30 19:35 51.45640 7.43128 2914 ft 171 kts 63°
2026-04-30 19:36 51.46271 7.44715 2668 ft 166 kts 65°
2026-04-30 19:36 51.46828 7.46229 2453 ft 148 kts 68°
2026-04-30 19:36 51.47504 7.48977 2076 ft 129 kts 72°
2026-04-30 19:37 51.47960 7.50265 1909 ft 135 kts 65°
2026-04-30 19:37 51.48424 7.51505 1723 ft 129 kts 67°
2026-04-30 19:37 51.48859 7.52763 1545 ft 129 kts 67°
2026-04-30 19:37 51.49303 7.54030 1370 ft 130 kts 66°
2026-04-30 19:38 51.49751 7.55311 1196 ft 133 kts 64°
2026-04-30 19:38 51.50215 7.56617 1005 ft 133 kts 62°
2026-04-30 19:38 51.50669 7.57898 836 ft 132 kts 64°
2026-04-30 19:38 51.51113 7.59189 675 ft 132 kts 60°
2026-04-30 19:39 51.51570 7.60464 478 ft 133 kts 63°
2026-04-30 19:39 51.51962 7.61588 418 ft 88 kts 59°
2026-04-30 19:39 51.52160 7.62162 410 ft 36 kts 60°
2026-04-30 19:39 51.52182 7.62294 413 ft 5 kts 120°
2026-04-30 19:40 51.52148 7.62348 413 ft 13 kts 145°
2026-04-30 19:40 51.52051 7.62375 413 ft 18 kts 205°
2026-04-30 19:40 51.52015 7.62289 412 ft 18 kts 243°
2026-04-30 19:40 51.51953 7.62105 412 ft 14 kts 241°
2026-04-30 19:41 51.51905 7.61969 414 ft 14 kts 240°
2026-04-30 19:41 51.51859 7.61839 417 ft 13 kts 240°
2026-04-30 19:41 51.51812 7.61705 415 ft 14 kts 240°
2026-04-30 19:41 51.51766 7.61574 419 ft 12 kts 240°
2026-04-30 19:42 51.51726 7.61462 420 ft 11 kts 240°